Home   Weather   34°51'N, 82°19'W   Past weeks
Flag for USA

Past Weather in 34°51'N, 82°19'W, USA — Yesterday and Last 2 Weeks

Now
92 °F

Partly sunny.


Feels Like: 97 °F
Forecast: 91 / 73 °F
Wind: 15 mph from Southwest

Location: Greenville Downtown Airport

Current Time: Jul 21, 2019 at 6:02:38 pm

Latest Report: Jul 21, 2019 at 4:53 pm


Visibility: 10 mi

Pressure: 29.98 "Hg

Humidity: 47%

Dew Point: 69 °F

Location of 34°51'N, 82°19'WLocation

Past Weather in 34°51'N, 82°19'W — Graph

°F

34°51'N, 82°19'W Temperature Yesterday

Maximum temperature yesterday: 90 °F (at 2:53 pm)
Minimum temperature yesterday: 75 °F (at 2:25 am)
Average temperature yesterday: 82 °F

High & Low Weather Summary for the Past Weeks

 TemperatureHumidityPressure
High96 °F (Jul 8, 4:53 pm)97% (Jul 11, 11:53 pm)30.16 "Hg (Jul 11, 11:53 pm)
Low71 °F (Jul 14, 5:53 am)41% (Jul 16, 4:53 pm)29.82 "Hg (Jul 8, 5:53 pm)
Average82 °F73%30.01 "Hg
* Reported Jul 6 5:11 pm — Jul 21 4:53 pm, 34°51'N, 82°19'W. Weather by CustomWeather, © 2019

Note: Actual official high and low records may vary slightly from our data, if they occured in-between our weather recording intervals... More about our weather records

Advertising

34°51'N, 82°19'W Weather History for the Previous 24 Hours

Scroll right to see more
 ConditionsComfort  
Time TempWeatherWind HumidityBarometerVisibility
4:53 pm
Sun, Jul 21
92 °FPartly sunny.15 mph47%29.98 "Hg10 mi
3:53 pm93 °FScattered clouds.14 mph46%29.98 "Hg10 mi
2:53 pm91 °FPassing clouds.14 mph50%30.01 "Hg10 mi
1:53 pm92 °FSunny.12 mph49%30.02 "Hg10 mi
12:53 pm89 °FBroken clouds.10 mph53%30.04 "Hg10 mi
11:53 am88 °FPassing clouds.12 mph57%30.04 "Hg10 mi
10:53 am86 °FSunny.15 mph61%30.04 "Hg10 mi
9:53 am83 °FSunny.10 mph68%30.04 "Hg10 mi
8:53 am80 °FSunny.8 mph76%30.06 "Hg10 mi
7:53 am76 °FSunny.8 mph88%30.04 "Hg10 mi
6:53 am74 °FSunny.6 mph91%30.02 "Hg10 mi
5:53 am75 °FClear.3 mph88%30.02 "Hg10 mi
4:53 am74 °FClear.No wind94%30.01 "Hg10 mi
3:53 am76 °FClear.5 mph88%30.00 "Hg10 mi
2:53 am77 °FClear.5 mph85%29.99 "Hg10 mi
1:53 am78 °FClear.3 mph79%30.00 "Hg10 mi
12:53 am80 °FClear.5 mph79%30.04 "Hg10 mi
11:53 pm
Sat, Jul 20
81 °FPassing clouds.6 mph77%30.04 "Hg10 mi
10:53 pm82 °FClear.5 mph74%30.03 "Hg10 mi
9:53 pm84 °FClear.5 mph70%30.02 "Hg10 mi
8:53 pm85 °FClear.3 mph65%30.00 "Hg10 mi
7:53 pm87 °FSunny.8 mph59%29.99 "Hg10 mi
6:53 pm89 °FSunny.9 mph55%29.99 "Hg10 mi
Weather by CustomWeather, © 2019

See weather overview